Location: La Bastide
(43.1661°N, 1.2755°E)
Time: 13:54:48
(UTC+00:00)

BlueWalker 3 - Pass Details

Date: 26 February 2026
Orbit: 451 x 458 km, 53.2° (Epoch: 6 March)

Event Time Altitude Azimuth Distance (km) Brightness Sun altitude
Exits shadow 05:39:33 14° 245° (WSW) 1,359 3.6 -11.1°
Maximum altitude 05:42:31 65° 326° (NW) 506 1.8 -10.5°
Drops below altitude 10° 05:46:06 10° 50° (NE) 1,598 5.2 -9.9°
Sets 05:48:15 0° 53° (NE) 2,473 6.3 -9.5°
